This demonstration page uses our WeatherBlox Daily Observations layout. Learn more.

Left ArrowRight Arrow

44.8408, -93.29828

Hourly Observations for August 9, 2019

Temp ( °F °C ) Dew Point ( °F °C ) Humidity (%) Winds ( mph kmh ) Pressure ( in mb ) Visibility ( mi km ) Precip ( " mm )
12:53 am 00:53 Clear 64 17.8 50 10 60 60 NNW 6 9 29.96 1015 10 16 0.00 0.00
1:53 am 01:53 Clear 62 16.7 50 10 65 65 WNW 6 9 29.97 1015 10 16 0.00 0.00
2:53 am 02:53 Clear 62 16.7 50 10 65 65 NNW 7 11 29.96 1015 10 16 0.00 0.00
3:53 am 03:53 Clear 60 15.6 50 10 70 70 W 5 7 29.96 1015 10 16 0.00 0.00
4:53 am 04:53 Clear 61 16.1 51 10.6 70 70 W 3 6 29.98 1015 10 16 0.00 0.00
5:53 am 05:53 Clear 58 14.4 51 10.6 78 78 WNW 5 7 29.99 1016 10 16 0.00 0.00
6:53 am 06:53 Mostly Sunny 60 15.6 53 11.7 78 78 SW 3 6 30.01 1016 10 16 0.00 0.00
7:53 am 07:53 Mostly Sunny 64 17.8 53 11.7 68 68 W 3 6 30.03 1017 10 16 0.00 0.00
8:53 am 08:53 Mostly Sunny 69 20.6 53 11.7 57 57 NW 3 6 30.02 1017 10 16 0.00 0.00
9:53 am 09:53 Partly Cloudy 72 22.2 53 11.7 52 52 NW 5 7 30.02 1017 10 16 0.00 0.00
10:53 am 10:53 Partly Cloudy 74 23.3 51 10.6 45 45 VRB 3 6 30.01 1016 10 16 0.00 0.00
11:53 am 11:53 Partly Cloudy 77 25 50 10 39 39 N 9 15 30.01 1016 10 16 0.00 0.00
12:53 pm 12:53 Partly Cloudy 78 25.6 50 10 37 37 VRB 5 7 30.00 1016 10 16 0.00 0.00
1:53 pm 13:53 Mostly Cloudy 79 26.1 51 10.6 38 38 W 8 13 29.99 1016 10 16 0.00 0.00
2:53 pm 14:53 Partly Cloudy 80 26.7 49 9.4 34 34 VRB 5 7 29.98 1015 10 16 0.00 0.00
3:53 pm 15:53 Partly Cloudy 81 27.2 48 8.9 32 32 WNW 5 7 29.96 1015 10 16 0.00 0.00
4:53 pm 16:53 Partly Cloudy 79 26.1 50 10 36 36 SW 7 11 29.95 1014 10 16 0.00 0.00
5:53 pm 17:53 Mostly Cloudy 78 25.6 52 11.1 40 40 VRB 5 7 29.96 1015 10 16 0.00 0.00
6:53 pm 18:53 Cloudy 76 24.4 53 11.7 45 45 NW 7 11 29.97 1015 10 16 0.00 0.00
7:53 pm 19:53 Cloudy 75 23.9 53 11.7 46 46 WNW 7 11 29.96 1015 10 16 0.00 0.00
8:53 pm 20:53 Cloudy 74 23.3 54 12.2 50 50 W 6 9 29.96 1015 10 16 0.00 0.00
9:53 pm 21:53 Cloudy 74 23.3 54 12.2 50 50 Calm 29.96 1015 10 16 0.00 0.00
10:53 pm 22:53 Cloudy 73 22.8 56 13.3 55 55 VRB 3 6 29.96 1015 10 16 0.00 0.00
11:53 pm 23:53 Cloudy 74 23.3 55 12.8 52 52 Calm 29.96 1015 10 16 0.00 0.00

Powered by AerisWeather